Location: Bacharowice
(49.9333°N, 19.5833°E)
Time: 01:26:40
(UTC+00:00)

Cosmos 1680 Rocket - Pass Details

Date: 11 May 2021
Orbit: 759 x 781 km, 74.1° (Epoch: 22 June)

Event Time Altitude Azimuth Distance (km) Brightness Sun altitude
Rises 20:24:00 0° 337° (NNW) 3,277 8.5 -15.8°
Reaches altitude 10° 20:26:26 10° 340° (NNW) 2,346 7.3 -16.0°
Maximum altitude 20:31:44 66° 63° (ENE) 855 3.7 -16.5°
Enters shadow 20:34:34 28° 138° (SE) 1,447 4.3 -16.7°
